����������;��������(kWh)
2019-05-27 00:00;70,2
2019-05-27 00:15;72,9
2019-05-27 00:30;73,5
2019-05-27 00:45;71,05
2019-05-27 01:00;71,2
2019-05-27 01:15;72,25
2019-05-27 01:30;75,1
2019-05-27 01:45;71,85
2019-05-27 02:00;71,15
2019-05-27 02:15;70,3
2019-05-27 02:30;70,55
2019-05-27 02:45;72,3
2019-05-27 03:00;70,5
2019-05-27 03:15;73,9
2019-05-27 03:30;73,3
2019-05-27 03:45;75,5
2019-05-27 04:00;73,9
2019-05-27 04:15;75,85
2019-05-27 04:30;75,85
2019-05-27 04:45;76,7
2019-05-27 05:00;75,85
2019-05-27 05:15;76,75
2019-05-27 05:30;76,8
2019-05-27 05:45;77,3
2019-05-27 06:00;73,85
2019-05-27 06:15;70,25
2019-05-27 06:30;68,6
2019-05-27 06:45;68,5
2019-05-27 07:00;71,55
2019-05-27 07:15;69,9
2019-05-27 07:30;73,7
2019-05-27 07:45;77,1
2019-05-27 08:00;75,6
2019-05-27 08:15;77,35
2019-05-27 08:30;82,6
2019-05-27 08:45;89,2
2019-05-27 09:00;92,15
2019-05-27 09:15;94,95
2019-05-27 09:30;99,65
2019-05-27 09:45;99,95
2019-05-27 10:00;100,55
2019-05-27 10:15;103,15
2019-05-27 10:30;104
2019-05-27 10:45;105,1
2019-05-27 11:00;108,4
2019-05-27 11:15;116,9
2019-05-27 11:30;118
2019-05-27 11:45;119,9
2019-05-27 12:00;118,5
2019-05-27 12:15;120,65
2019-05-27 12:30;120,5
2019-05-27 12:45;123,75
2019-05-27 13:00;122,25
2019-05-27 13:15;122,85
2019-05-27 13:30;122,6
2019-05-27 13:45;123,3
2019-05-27 14:00;116,85
2019-05-27 14:15;119,35
2019-05-27 14:30;114,05
2019-05-27 14:45;117
2019-05-27 15:00;122,15
2019-05-27 15:15;124,5
2019-05-27 15:30;117,25
2019-05-27 15:45;114,75
2019-05-27 16:00;112,95
2019-05-27 16:15;107,25
2019-05-27 16:30;110,35
2019-05-27 16:45;106,15
2019-05-27 17:00;102,3
2019-05-27 17:15;100,7
2019-05-27 17:30;99,6
2019-05-27 17:45;98,9
2019-05-27 18:00;99,3
2019-05-27 18:15;99,3
2019-05-27 18:30;96,6
2019-05-27 18:45;94,3
2019-05-27 19:00;94,4
2019-05-27 19:15;100,1
2019-05-27 19:30;100,05
2019-05-27 19:45;95,55
2019-05-27 20:00;96,25
2019-05-27 20:15;91,15
2019-05-27 20:30;90,65
2019-05-27 20:45;91,05
2019-05-27 21:00;96,3
2019-05-27 21:15;96,9
2019-05-27 21:30;92,7
2019-05-27 21:45;86,9
2019-05-27 22:00;82,7
2019-05-27 22:15;79,2
2019-05-27 22:30;80,35
2019-05-27 22:45;81,1
2019-05-27 23:00;83,75
2019-05-27 23:15;81
2019-05-27 23:30;78,8
2019-05-27 23:45;77,85
2019-05-28 00:00;77,15
2019-05-28 00:15;81,05
2019-05-28 00:30;79,65
2019-05-28 00:45;78,7
2019-05-28 01:00;79,8
2019-05-28 01:15;78,35
2019-05-28 01:30;78,35
2019-05-28 01:45;78,35
2019-05-28 02:00;76,95
2019-05-28 02:15;77,3
2019-05-28 02:30;76
2019-05-28 02:45;77,05
2019-05-28 03:00;75,65
2019-05-28 03:15;79,5
2019-05-28 03:30;77,1
2019-05-28 03:45;76,85
2019-05-28 04:00;77,3
2019-05-28 04:15;76,2
2019-05-28 04:30;73
2019-05-28 04:45;75,1
2019-05-28 05:00;74,35
2019-05-28 05:15;75
2019-05-28 05:30;75,7
2019-05-28 05:45;74,65
2019-05-28 06:00;71,75
2019-05-28 06:15;71,1
2019-05-28 06:30;67,55
2019-05-28 06:45;66,05
2019-05-28 07:00;68,7
2019-05-28 07:15;70,75
2019-05-28 07:30;74,6
2019-05-28 07:45;77,3
2019-05-28 08:00;74,3
2019-05-28 08:15;74,8
2019-05-28 08:30;78,45
2019-05-28 08:45;86,95
2019-05-28 09:00;90,55
2019-05-28 09:15;94,7
2019-05-28 09:30;96,2
2019-05-28 09:45;97,6
2019-05-28 10:00;140,45
2019-05-28 10:15;136
2019-05-28 10:30;115,25
2019-05-28 10:45;112,2
2019-05-28 11:00;124,35
2019-05-28 11:15;141,85
2019-05-28 11:30;125,75
2019-05-28 11:45;140,5
2019-05-28 12:00;133,55
2019-05-28 12:15;141,8
2019-05-28 12:30;139,35
2019-05-28 12:45;144,65
2019-05-28 13:00;128,6
2019-05-28 13:15;141,25
2019-05-28 13:30;134,15
2019-05-28 13:45;134,1
2019-05-28 14:00;135,8
2019-05-28 14:15;131,65
2019-05-28 14:30;132,8
2019-05-28 14:45;129,65
2019-05-28 15:00;129,8
2019-05-28 15:15;129,3
2019-05-28 15:30;119,2
2019-05-28 15:45;128,55
2019-05-28 16:00;116,85
2019-05-28 16:15;123,5
2019-05-28 16:30;108,5
2019-05-28 16:45;117,7
2019-05-28 17:00;106,7
2019-05-28 17:15;119,05
2019-05-28 17:30;99,45
2019-05-28 17:45;110,5
2019-05-28 18:00;102,4
2019-05-28 18:15;115
2019-05-28 18:30;103,6
2019-05-28 18:45;99,5
2019-05-28 19:00;99
2019-05-28 19:15;99,95
2019-05-28 19:30;99,25
2019-05-28 19:45;97,1
2019-05-28 20:00;96,45
2019-05-28 20:15;94,95
2019-05-28 20:30;93,8
2019-05-28 20:45;93,7
2019-05-28 21:00;97,15
2019-05-28 21:15;95,65
2019-05-28 21:30;92,1
2019-05-28 21:45;90,8
2019-05-28 22:00;83,2
2019-05-28 22:15;82,95
2019-05-28 22:30;80,75
2019-05-28 22:45;78,4
2019-05-28 23:00;84,05
2019-05-28 23:15;82,65
2019-05-28 23:30;81,35
2019-05-28 23:45;82,25
2019-05-29 00:00;81
2019-05-29 00:15;81,7
2019-05-29 00:30;78,1
2019-05-29 00:45;77,95
2019-05-29 01:00;79,35
2019-05-29 01:15;79,4
2019-05-29 01:30;78,75
2019-05-29 01:45;76,8
2019-05-29 02:00;76,75
2019-05-29 02:15;78,2
2019-05-29 02:30;79,1
2019-05-29 02:45;77,25
2019-05-29 03:00;76,9
2019-05-29 03:15;77,35
2019-05-29 03:30;77,9
2019-05-29 03:45;78,6
2019-05-29 04:00;77,9
2019-05-29 04:15;79
2019-05-29 04:30;79,2
2019-05-29 04:45;81,1
2019-05-29 05:00;79,4
2019-05-29 05:15;75,7
2019-05-29 05:30;77,2
2019-05-29 05:45;75,4
2019-05-29 06:00;74,2
2019-05-29 06:15;69,2
2019-05-29 06:30;67,7
2019-05-29 06:45;67,3
2019-05-29 07:00;69,9
2019-05-29 07:15;72,6
2019-05-29 07:30;114,8
2019-05-29 07:45;77,2
2019-05-29 08:00;75,15
2019-05-29 08:15;77,1
2019-05-29 08:30;86,75
2019-05-29 08:45;87
2019-05-29 09:00;102,3
2019-05-29 09:15;105,25
2019-05-29 09:30;107,85
2019-05-29 09:45;112,9
2019-05-29 10:00;109,25
2019-05-29 10:15;117,7
2019-05-29 10:30;114,9
2019-05-29 10:45;117,3
2019-05-29 11:00;111,8
2019-05-29 11:15;121,8
2019-05-29 11:30;125,05
2019-05-29 11:45;123,9
2019-05-29 12:00;131,55
2019-05-29 12:15;124,9
2019-05-29 12:30;134,45
2019-05-29 12:45;134,9
2019-05-29 13:00;133,4
2019-05-29 13:15;127,25
2019-05-29 13:30;124,6
2019-05-29 13:45;131,5
2019-05-29 14:00;128,45
2019-05-29 14:15;131,4
2019-05-29 14:30;122,85
2019-05-29 14:45;128,6
2019-05-29 15:00;123,05
2019-05-29 15:15;121,5
2019-05-29 15:30;118,3
2019-05-29 15:45;121,9
2019-05-29 16:00;117,95
2019-05-29 16:15;116,35
2019-05-29 16:30;112,15
2019-05-29 16:45;118,65
2019-05-29 17:00;107,95
2019-05-29 17:15;111,85
2019-05-29 17:30;103,95
2019-05-29 17:45;110,75
2019-05-29 18:00;101,75
2019-05-29 18:15;104,85
2019-05-29 18:30;104,4
2019-05-29 18:45;106,15
2019-05-29 19:00;106,4
2019-05-29 19:15;104,25
2019-05-29 19:30;103,6
2019-05-29 19:45;106,2
2019-05-29 20:00;104,75
2019-05-29 20:15;102,35
2019-05-29 20:30;98,55
2019-05-29 20:45;98,1
2019-05-29 21:00;97,25
2019-05-29 21:15;97,6
2019-05-29 21:30;98
2019-05-29 21:45;91,8
2019-05-29 22:00;88,1
2019-05-29 22:15;83,4
2019-05-29 22:30;82,25
2019-05-29 22:45;80,6
2019-05-29 23:00;86
2019-05-29 23:15;83,65
2019-05-29 23:30;81,55
2019-05-29 23:45;79,15
2019-05-30 00:00;78,4
2019-05-30 00:15;78,9
2019-05-30 00:30;78
2019-05-30 00:45;78,1
2019-05-30 01:00;74,8
2019-05-30 01:15;76,05
2019-05-30 01:30;74,45
2019-05-30 01:45;71,7
2019-05-30 02:00;70,05
2019-05-30 02:15;70,95
2019-05-30 02:30;72,25
2019-05-30 02:45;72,05
2019-05-30 03:00;73,3
2019-05-30 03:15;71,15
2019-05-30 03:30;71,5
2019-05-30 03:45;74,45
2019-05-30 04:00;72
2019-05-30 04:15;72,3
2019-05-30 04:30;73,05
2019-05-30 04:45;72,3
2019-05-30 05:00;74,1
2019-05-30 05:15;76,9
2019-05-30 05:30;76,45
2019-05-30 05:45;73,3
2019-05-30 06:00;71,05
2019-05-30 06:15;67,15
2019-05-30 06:30;65,2
2019-05-30 06:45;66,95
2019-05-30 07:00;70,8
2019-05-30 07:15;67,05
2019-05-30 07:30;112,5
2019-05-30 07:45;78,35
2019-05-30 08:00;77,7
2019-05-30 08:15;77,5
2019-05-30 08:30;85,5
2019-05-30 08:45;85,25
2019-05-30 09:00;103,4
2019-05-30 09:15;100,65
2019-05-30 09:30;107,4
2019-05-30 09:45;111,05
2019-05-30 10:00;110,35
2019-05-30 10:15;118,4
2019-05-30 10:30;113,1
2019-05-30 10:45;116,65
2019-05-30 11:00;114,45
2019-05-30 11:15;123,65
2019-05-30 11:30;117,05
2019-05-30 11:45;126,05
2019-05-30 12:00;127,4
2019-05-30 12:15;132,15
2019-05-30 12:30;136,05
2019-05-30 12:45;123,9
2019-05-30 13:00;133
2019-05-30 13:15;127
2019-05-30 13:30;134,9
2019-05-30 13:45;128,65
2019-05-30 14:00;135,35
2019-05-30 14:15;126,1
2019-05-30 14:30;133,4
2019-05-30 14:45;125,9
2019-05-30 15:00;127,55
2019-05-30 15:15;127,9
2019-05-30 15:30;124,75
2019-05-30 15:45;127,5
2019-05-30 16:00;115,65
2019-05-30 16:15;120,8
2019-05-30 16:30;115,1
2019-05-30 16:45;112,05
2019-05-30 17:00;112,5
2019-05-30 17:15;110,75
2019-05-30 17:30;113
2019-05-30 17:45;104,25
2019-05-30 18:00;109,75
2019-05-30 18:15;106,45
2019-05-30 18:30;109,85
2019-05-30 18:45;107,5
2019-05-30 19:00;106,25
2019-05-30 19:15;111
2019-05-30 19:30;112,4
2019-05-30 19:45;105,5
2019-05-30 20:00;106,15
2019-05-30 20:15;104,5
2019-05-30 20:30;102,35
2019-05-30 20:45;104,9
2019-05-30 21:00;106,85
2019-05-30 21:15;106,05
2019-05-30 21:30;105,8
2019-05-30 21:45;94
2019-05-30 22:00;86
2019-05-30 22:15;84,55
2019-05-30 22:30;85,3
2019-05-30 22:45;84,4
2019-05-30 23:00;85,05
2019-05-30 23:15;83,3
2019-05-30 23:30;83,25
2019-05-30 23:45;80,85
2019-05-31 00:00;80,65
2019-05-31 00:15;80,25
2019-05-31 00:30;81,4
2019-05-31 00:45;80,3
2019-05-31 01:00;79,1
2019-05-31 01:15;80,85
2019-05-31 01:30;81,85
2019-05-31 01:45;79,9
2019-05-31 02:00;79,4
2019-05-31 02:15;78,5
2019-05-31 02:30;75,5
2019-05-31 02:45;77,45
2019-05-31 03:00;75,65
2019-05-31 03:15;74,05
2019-05-31 03:30;76,65
2019-05-31 03:45;75
2019-05-31 04:00;76,05
2019-05-31 04:15;77,8
2019-05-31 04:30;75,55
2019-05-31 04:45;75,1
2019-05-31 05:00;76
2019-05-31 05:15;77,4
2019-05-31 05:30;79,05
2019-05-31 05:45;77,65
2019-05-31 06:00;74,9
2019-05-31 06:15;68,75
2019-05-31 06:30;68,35
2019-05-31 06:45;67,6
2019-05-31 07:00;71,7
2019-05-31 07:15;70,3
2019-05-31 07:30;115,3
2019-05-31 07:45;80,2
2019-05-31 08:00;75,9
2019-05-31 08:15;81,6
2019-05-31 08:30;89,4
2019-05-31 08:45;97,9
2019-05-31 09:00;99,75
2019-05-31 09:15;106,55
2019-05-31 09:30;106
2019-05-31 09:45;115,3
2019-05-31 10:00;109,95
2019-05-31 10:15;113,95
2019-05-31 10:30;124,4
2019-05-31 10:45;116,2
2019-05-31 11:00;120,75
2019-05-31 11:15;122,75
2019-05-31 11:30;135,8
2019-05-31 11:45;133,05
2019-05-31 12:00;130,05
2019-05-31 12:15;139,8
2019-05-31 12:30;128,6
2019-05-31 12:45;133,6
2019-05-31 13:00;130,2
2019-05-31 13:15;136,95
2019-05-31 13:30;134,95
2019-05-31 13:45;136,7
2019-05-31 14:00;131,2
2019-05-31 14:15;136,55
2019-05-31 14:30;131,05
2019-05-31 14:45;133,55
2019-05-31 15:00;136,05
2019-05-31 15:15;124,9
2019-05-31 15:30;132,55
2019-05-31 15:45;130,15
2019-05-31 16:00;117,5
2019-05-31 16:15;117,8
2019-05-31 16:30;115,3
2019-05-31 16:45;125,55
2019-05-31 17:00;107,3
2019-05-31 17:15;108,85
2019-05-31 17:30;106,4
2019-05-31 17:45;122,75
2019-05-31 18:00;115,65
2019-05-31 18:15;110,15
2019-05-31 18:30;108,15
2019-05-31 18:45;107,05
2019-05-31 19:00;104,5
2019-05-31 19:15;102,8
2019-05-31 19:30;103,55
2019-05-31 19:45;105,6
2019-05-31 20:00;97,95
2019-05-31 20:15;99,9
2019-05-31 20:30;99,9
2019-05-31 20:45;98,7
2019-05-31 21:00;98,05
2019-05-31 21:15;97,65
2019-05-31 21:30;96,2
2019-05-31 21:45;90,95
2019-05-31 22:00;90,1
2019-05-31 22:15;89,8
2019-05-31 22:30;89
2019-05-31 22:45;87,75
2019-05-31 23:00;94,8
2019-05-31 23:15;86,6
2019-05-31 23:30;88,1
2019-05-31 23:45;93,1
2019-06-01 00:00;85,3
2019-06-01 00:15;80,6
2019-06-01 00:30;79,4
2019-06-01 00:45;78,65
2019-06-01 01:00;80,7
2019-06-01 01:15;79,3
2019-06-01 01:30;80
2019-06-01 01:45;79,1
2019-06-01 02:00;77,95
2019-06-01 02:15;77,85
2019-06-01 02:30;78,3
2019-06-01 02:45;79,6
2019-06-01 03:00;79,15
2019-06-01 03:15;79,1
2019-06-01 03:30;79,5
2019-06-01 03:45;78,75
2019-06-01 04:00;76,5
2019-06-01 04:15;73,85
2019-06-01 04:30;76,6
2019-06-01 04:45;73,8
2019-06-01 05:00;74,75
2019-06-01 05:15;74,9
2019-06-01 05:30;74,5
2019-06-01 05:45;75,8
2019-06-01 06:00;74,15
2019-06-01 06:15;69,05
2019-06-01 06:30;68,25
2019-06-01 06:45;67,05
2019-06-01 07:00;67,25
2019-06-01 07:15;66,05
2019-06-01 07:30;65,15
2019-06-01 07:45;66,4
2019-06-01 08:00;65,1
2019-06-01 08:15;67
2019-06-01 08:30;67,3
2019-06-01 08:45;68,4
2019-06-01 09:00;69,85
2019-06-01 09:15;70,75
2019-06-01 09:30;72,65
2019-06-01 09:45;75,8
2019-06-01 10:00;76,1
2019-06-01 10:15;79,1
2019-06-01 10:30;77,6
2019-06-01 10:45;77,6
2019-06-01 11:00;75,1
2019-06-01 11:15;77,35
2019-06-01 11:30;79,05
2019-06-01 11:45;78,25
2019-06-01 12:00;78,1
2019-06-01 12:15;74,9
2019-06-01 12:30;76,65
2019-06-01 12:45;76,75
2019-06-01 13:00;76,6
2019-06-01 13:15;75,45
2019-06-01 13:30;75,65
2019-06-01 13:45;77,6
2019-06-01 14:00;79,55
2019-06-01 14:15;76,35
2019-06-01 14:30;78,7
2019-06-01 14:45;82,35
2019-06-01 15:00;81
2019-06-01 15:15;82,15
2019-06-01 15:30;83,75
2019-06-01 15:45;79,25
2019-06-01 16:00;79,55
2019-06-01 16:15;77,15
2019-06-01 16:30;75,15
2019-06-01 16:45;75,5
2019-06-01 17:00;73,7
2019-06-01 17:15;72
2019-06-01 17:30;74,95
2019-06-01 17:45;74,1
2019-06-01 18:00;74,85
2019-06-01 18:15;74,45
2019-06-01 18:30;80,45
2019-06-01 18:45;80
2019-06-01 19:00;82,65
2019-06-01 19:15;82,65
2019-06-01 19:30;84,8
2019-06-01 19:45;86,3
2019-06-01 20:00;87,65
2019-06-01 20:15;92,7
2019-06-01 20:30;90,95
2019-06-01 20:45;91,65
2019-06-01 21:00;92,45
2019-06-01 21:15;92,75
2019-06-01 21:30;89,25
2019-06-01 21:45;91,2
2019-06-01 22:00;82,2
2019-06-01 22:15;80,9
2019-06-01 22:30;78,55
2019-06-01 22:45;78,95
2019-06-01 23:00;87,75
2019-06-01 23:15;82,25
2019-06-01 23:30;86,4
2019-06-01 23:45;90,2
2019-06-02 00:00;79,9
2019-06-02 00:15;82,3
2019-06-02 00:30;77,5
2019-06-02 00:45;78,1
2019-06-02 01:00;75,6
2019-06-02 01:15;73,55
2019-06-02 01:30;75,3
2019-06-02 01:45;74,4
2019-06-02 02:00;73,35
2019-06-02 02:15;73,4
2019-06-02 02:30;73,2
2019-06-02 02:45;75
2019-06-02 03:00;73,4
2019-06-02 03:15;73,75
2019-06-02 03:30;73,85
2019-06-02 03:45;74,3
2019-06-02 04:00;74,5
2019-06-02 04:15;76,3
2019-06-02 04:30;73,8
2019-06-02 04:45;74,6
2019-06-02 05:00;75,15
2019-06-02 05:15;74,35
2019-06-02 05:30;78,9
2019-06-02 05:45;74,7
2019-06-02 06:00;72,75
2019-06-02 06:15;69,35
2019-06-02 06:30;67,3
2019-06-02 06:45;69,85
2019-06-02 07:00;66,75
2019-06-02 07:15;66,45
2019-06-02 07:30;66,85
2019-06-02 07:45;65,4
2019-06-02 08:00;64,7
2019-06-02 08:15;63,6
2019-06-02 08:30;65,3
2019-06-02 08:45;68,3
2019-06-02 09:00;71,8
2019-06-02 09:15;71,15
2019-06-02 09:30;69,6
2019-06-02 09:45;71,95
2019-06-02 10:00;75,45
2019-06-02 10:15;74,35
2019-06-02 10:30;74,25
2019-06-02 10:45;67,85
2019-06-02 11:00;70,05
2019-06-02 11:15;70,95
2019-06-02 11:30;69,45
2019-06-02 11:45;77,95
2019-06-02 12:00;77,2
2019-06-02 12:15;72,15
2019-06-02 12:30;77,15
2019-06-02 12:45;73,55
2019-06-02 13:00;70,45
2019-06-02 13:15;72,05
2019-06-02 13:30;76,9
2019-06-02 13:45;76,7
2019-06-02 14:00;76,7
2019-06-02 14:15;76,05
2019-06-02 14:30;75,5
2019-06-02 14:45;75,9
2019-06-02 15:00;74,8
2019-06-02 15:15;73,7
2019-06-02 15:30;79
2019-06-02 15:45;73,7
2019-06-02 16:00;75,25
2019-06-02 16:15;73,25
2019-06-02 16:30;71,95
2019-06-02 16:45;75,8
2019-06-02 17:00;71,5
2019-06-02 17:15;71,6
2019-06-02 17:30;71,9
2019-06-02 17:45;72,2
2019-06-02 18:00;72,9
2019-06-02 18:15;74,65
2019-06-02 18:30;77,25
2019-06-02 18:45;77,55
2019-06-02 19:00;77,35
2019-06-02 19:15;79,55
2019-06-02 19:30;81,15
2019-06-02 19:45;79,55
2019-06-02 20:00;82,55
2019-06-02 20:15;83,8
2019-06-02 20:30;81,6
2019-06-02 20:45;83,8
2019-06-02 21:00;86
2019-06-02 21:15;87
2019-06-02 21:30;84,8
2019-06-02 21:45;80,4
2019-06-02 22:00;76,3
2019-06-02 22:15;75,35
2019-06-02 22:30;74,85
2019-06-02 22:45;74,55
2019-06-02 23:00;79,9
2019-06-02 23:15;76,5
2019-06-02 23:30;77,9
2019-06-02 23:45;83,25

